This is the latest recevied weather packets stored in our database for station/object N1TKS. If no packets are shown the sender has not sent any weather packets the latest 10 day(s).
| Time | Temp. | Humidity | Pressure | Rain* | Wind** | Luminosity | Snow |
|---|---|---|---|---|---|---|---|
| 1777436187 | 11.11° C | 77% | 1019.3 hPa | 0 mm | - | - | - |
| 1777435917 | 11.11° C | 78% | 1019.3 hPa | 0 mm | - | - | - |
| 1777435649 | 11.11° C | 78% | 1019.4 hPa | 0 mm | - | - | - |
| 1777435613 | 11.11° C | 78% | 1019.4 hPa | 0 mm | - | - | - |
| 1777435312 | 11.11° C | 78% | 1019.4 hPa | 0 mm | - | - | - |
| 1777434717 | 11.11° C | 77% | 1019.4 hPa | 0 mm | - | - | - |
| 1777434548 | 11.11° C | 77% | 1019.3 hPa | 0 mm | - | - | - |
| 1777434413 | 11.11° C | 77% | 1019.3 hPa | 0 mm | - | - | - |
| 1777434117 | 11.11° C | 77% | 1019.3 hPa | 0 mm | - | - | - |
| 1777433814 | 11.11° C | 77% | 1019.2 hPa | 0 mm | - | - | - |
| 1777433514 | 10.56° C | 76% | 1019.2 hPa | 0 mm | - | - | - |
| 1777433214 | 10.56° C | 74% | 1019.3 hPa | 0 mm | - | - | - |
| 1777432613 | 11.11° C | 73% | 1019.3 hPa | 0 mm | - | - | - |
| 1777432349 | 11.11° C | 69% | 1018.7 hPa | 0 mm | - | - | - |
| 1777432314 | 11.11° C | 72% | 1019.3 hPa | 0 mm | - | - | - |
| 1777432014 | 11.11° C | 72% | 1019.1 hPa | 0 mm | - | - | - |
| 1777431713 | 11.11° C | 71% | 1018.9 hPa | 0 mm | - | - | - |
| 1777431413 | 11.11° C | 70% | 1018.8 hPa | 0 mm | - | - | - |
| 1777431114 | 11.11° C | 69% | 1018.7 hPa | 0 mm | - | - | - |
| 1777430857 | 11.11° C | 69% | 1018.7 hPa | 0 mm | - | - | - |
| 1777430812 | 11.11° C | 69% | 1018.7 hPa | 0 mm | - | - | - |
| 1777430518 | 11.67° C | 69% | 1018.6 hPa | 0 mm | - | - | - |
| 1777430427 | 11.67° C | 69% | 1018.9 hPa | 0 mm | - | - | - |
| 1777430313 | 11.67° C | 69% | 1018.8 hPa | 0 mm | - | - | - |
| 1777430214 | 11.67° C | 69% | 1018.8 hPa | 0 mm | - | - | - |
* Rain latest hour (hover to see other rain measurements)
** Current wind speed in m/s (hover to see current wind gust speed)